Syracuse, NY

2:50 AM EDT on April 25, 2017 (GMT -0400)
Syracuse Hancock International

Weather History for KSYR - August, 2014

Change the Weather History Date:

Tuesday, August 12, 2014

  Actual Average Record
Temperature  
Mean Temperature 70 °F 70 °F  
Max Temperature 74 °F 81 °F 95 °F (1944)
Min Temperature 66 °F 60 °F 48 °F (1950)
Degree Days  
Heating Degree Days 0 0  
Month to date heating degree days 0 0  
Since 1 June heating degree days 25 69  
Since 1 July heating degree days 2 8  
Cooling Degree Days 5 6  
Month to date cooling degree days 79 72  
Year to date cooling degree days 492 418  
Since 1 June cooling degree days 436 388  
Growing Degree Days 20 (Base 50)    
Moisture  
Dew Point 62 °F    
Average Humidity 76    
Maximum Humidity 90    
Minimum Humidity 61    
Precipitation  
Precipitation 0.85 in 0.12 in 1.42 in (1937)
Month to date precipitation 1.36 1.37  
Year to date precipitation 26.66 22.39  
Snow  
Snow 0.00 in 0.00 in 0.00 in (2002)
Month to date snowfall 0.0 0.0  
Since 1 June snowfall 0.0 0.0  
Since 1 July snowfall 0.0 0.0  
Snow Depth 0.00 in    
Sea Level Pressure  
Sea Level Pressure 29.86 in    
Wind  
Wind Speed 11 mph (ESE)    
Max Wind Speed 23 mph    
Max Gust Speed 31 mph    
Visibility 9 miles    
Events Rain    
T = Trace of Precipitation, MM = Missing Value Source: NWS Daily Summary

Daily Weather History Graph

Daily Weather History Graph

Search for Another Location

Airport or City:

Trip Planner

Search our weather history database for the weather conditions in past years. The results will help you decide how hot, cold, wet, or windy it might be!

Date:

Astronomy

Aug. 12, 2014 Rise Set
Actual Time 6:06 AM EDT 8:11 PM EDT
Civil Twilight 5:35 AM EDT 8:42 PM EDT
Nautical Twilight 4:57 AM EDT 9:20 PM EDT
Astronomical Twilight 4:15 AM EDT 10:01 PM EDT
Moon 9:11 PM EDT (8/12) 8:26 AM EDT (8/12)
Length of Visible Light 15h 06m
Length of Day
14h 04m
Waning Gibbous, 95% of the Moon is Illuminated
Aug 12
Waning Gibbous
Aug 17
Last Quarter
Aug 25
New
Sep 2
First Quarter
Sep 8
Full

Hourly Weather History & Observations

Time (EDT) Temp. Dew Point Humidity Pressure Visibility Wind Dir Wind Speed Gust Speed Precip Events Conditions
12:54 AM 68.0 °F 57.0 °F 68% 29.97 in 10.0 mi ESE 6.9 mph - N/A   Overcast
1:54 AM 66.9 °F 57.0 °F 70% 29.95 in 10.0 mi East 9.2 mph - N/A   Overcast
2:54 AM 68.0 °F 57.0 °F 68% 29.93 in 10.0 mi East 11.5 mph - N/A   Overcast
3:54 AM 66.9 °F 57.0 °F 70% 29.91 in 10.0 mi East 10.4 mph - N/A   Overcast
4:54 AM 69.1 °F 55.9 °F 63% 29.90 in 10.0 mi ESE 9.2 mph - N/A   Overcast
5:54 AM 70.0 °F 57.0 °F 63% 29.89 in 10.0 mi SE 10.4 mph 26.5 mph 0.00 in Rain Light Rain
6:54 AM 66.9 °F 60.1 °F 79% 29.90 in 5.0 mi ESE 9.2 mph - 0.06 in Rain Rain
6:59 AM 66.2 °F 60.8 °F 83% 29.92 in 2.0 mi ESE 10.4 mph - 0.02 in Rain Heavy Rain
7:11 AM 66.2 °F 60.8 °F 83% 29.91 in 2.5 mi SE 8.1 mph 18.4 mph 0.13 in Rain Heavy Rain
7:21 AM 66.2 °F 60.8 °F 83% 29.91 in 4.0 mi ESE 11.5 mph 18.4 mph 0.15 in Rain Rain
7:54 AM 66.9 °F 63.0 °F 87% 29.90 in 5.0 mi ESE 12.7 mph - 0.19 in Rain Rain
8:54 AM 66.9 °F 63.0 °F 87% 29.88 in 4.0 mi ESE 16.1 mph - 0.08 in Rain Rain
9:54 AM 69.1 °F 63.0 °F 81% 29.88 in 10.0 mi SE 10.4 mph - 0.03 in Rain Light Rain
10:54 AM 69.1 °F 64.0 °F 84% 29.89 in 9.0 mi ESE 8.1 mph - 0.00 in Rain Light Rain
11:54 AM 70.0 °F 64.9 °F 84% 29.87 in 10.0 mi ESE 11.5 mph - 0.04 in Rain Light Rain
1:54 PM 71.1 °F 63.0 °F 75% 29.86 in 10.0 mi ESE 12.7 mph 20.7 mph 0.00 in   Light Drizzle
2:54 PM 72.0 °F 64.0 °F 76% 29.84 in 10.0 mi ESE 16.1 mph 23.0 mph 0.00 in   Overcast
3:54 PM 73.9 °F 63.0 °F 68% 29.82 in 10.0 mi South 16.1 mph 21.9 mph 0.00 in Rain Light Rain
4:42 PM 69.8 °F 64.4 °F 83% 29.82 in 10.0 mi SE 9.2 mph - 0.03 in Rain Light Rain
4:54 PM 70.0 °F 66.0 °F 87% 29.81 in 10.0 mi SE 10.4 mph - 0.03 in Rain Light Rain
5:18 PM 71.6 °F 66.2 °F 83% 29.81 in 3.0 mi ESE 8.1 mph - 0.03 in Rain Light Rain
5:47 PM 71.6 °F 66.2 °F 83% 29.82 in 10.0 mi ESE 12.7 mph 18.4 mph 0.03 in Rain Light Rain
5:54 PM 73.0 °F 64.0 °F 73% 29.81 in 10.0 mi SSE 12.7 mph 20.7 mph 0.03 in Rain Light Rain
6:54 PM 72.0 °F 64.0 °F 76% 29.81 in 10.0 mi SE 13.8 mph - 0.00 in Rain Light Rain
7:54 PM 71.1 °F 64.9 °F 81% 29.80 in 10.0 mi East 6.9 mph - 0.00 in Rain Light Rain
8:54 PM 71.1 °F 64.9 °F 81% 29.79 in 10.0 mi East 6.9 mph - 0.00 in   Overcast
9:54 PM 71.1 °F 64.0 °F 78% 29.79 in 9.0 mi SE 8.1 mph - 0.02 in Rain Light Rain
10:54 PM 71.1 °F 63.0 °F 75% 29.77 in 10.0 mi SSE 11.5 mph - 0.04 in Rain Light Rain
11:54 PM 72.0 °F 62.1 °F 71% 29.75 in 10.0 mi SE 11.5 mph - 0.00 in   Overcast